Weather History for St. Francis, KS

Change the Weather History Date:

Tuesday, May 14, 2013

  Actual Average Record
Temperature  
Mean Temperature 76 °F -  
Max Temperature 98 °F 74 °F 98 °F (2013)
Min Temperature 56 °F 43 °F 32 °F (2014)
Cooling Degree Days 12    
Growing Degree Days 26 (Base 50)    
Moisture  
Dew Point 36 °F    
Average Humidity 30    
Maximum Humidity 68    
Minimum Humidity 7    
Precipitation  
Precipitation 0.00 in - - ()
Sea Level Pressure  
Sea Level Pressure 29.87 in    
Wind  
Wind Speed 8 mph (SW)    
Max Wind Speed 25 mph    
Max Gust Speed 37 mph    
Visibility 10 miles    
Events Rain    
Averages and records for this station are not official NWS values.
T = Trace of Precipitation, MM = Missing Value Source: NWS Daily Summary

Daily Weather History Graph

Daily Weather History Graph

Search for Another Location

Airport:

Trip Planner

Search our weather history database for the weather conditions in past years. The results will help you decide how hot, cold, wet, or windy it might be!

Date:

Astronomy

May. 14, 2013 Rise Set
Actual Time 6:33 AM CDT 8:54 PM CDT
Civil Twilight 6:02 AM CDT 9:24 PM CDT
Nautical Twilight 5:25 AM CDT 10:02 PM CDT
Astronomical Twilight 4:43 AM CDT 10:44 PM CDT
Moon 10:14 AM CDT (5/14) 12:04 AM CDT (5/14)
Length of Visible Light 15h 22m
Length of Day
14h 21m
Waxing Crescent, 19% of the Moon is Illuminated
May 14
Waxing Crescent
May 17
First Quarter
May 24
Full
May 31
Last Quarter
Jun 8
New

Hourly Weather History & Observations

Time (CDT) Temp. Dew Point Humidity Pressure Visibility Wind Dir Wind Speed Gust Speed Precip Events Conditions
12:15 AM 61.3 °F 41.0 °F 47% 29.97 in 10.0 mi SW 4.6 mph - N/A   Clear
12:35 AM 63.9 °F 39.9 °F 41% 29.96 in 10.0 mi SW 8.1 mph - N/A   Clear
12:55 AM 63.3 °F 40.1 °F 43% 29.95 in 10.0 mi SW 5.8 mph - N/A   Clear
1:15 AM 63.0 °F 41.5 °F 45% 29.95 in 10.0 mi WSW 6.9 mph - N/A   Clear
1:35 AM 61.9 °F 42.4 °F 49% 29.94 in 10.0 mi SW 10.4 mph - N/A   Clear
1:55 AM 61.3 °F 43.7 °F 52% 29.93 in 10.0 mi WSW 9.2 mph - N/A   Clear
2:15 AM 61.7 °F 42.8 °F 50% 29.93 in 10.0 mi SSW 8.1 mph - N/A   Clear
2:35 AM 61.9 °F 41.5 °F 47% 29.92 in 10.0 mi WSW 8.1 mph - N/A   Clear
2:55 AM 59.7 °F 42.1 °F 52% 29.92 in 10.0 mi WSW 6.9 mph - N/A   Clear
3:15 AM 59.9 °F 42.4 °F 52% 29.92 in 10.0 mi SW 9.2 mph - N/A   Clear
3:35 AM 59.9 °F 44.1 °F 56% 29.92 in 10.0 mi WSW 10.4 mph - N/A   Clear
3:55 AM 60.4 °F 45.5 °F 58% 29.91 in 10.0 mi SW 10.4 mph - N/A   Clear
4:15 AM 59.5 °F 45.1 °F 59% 29.91 in 10.0 mi WSW 10.4 mph - N/A   Clear
4:35 AM 58.6 °F 45.3 °F 61% 29.91 in 10.0 mi WSW 8.1 mph - N/A   Clear
4:55 AM 58.1 °F 45.7 °F 63% 29.91 in 10.0 mi WSW 6.9 mph - N/A   Clear
5:15 AM 56.3 °F 45.9 °F 68% 29.91 in 10.0 mi SW 9.2 mph - N/A   Clear
5:35 AM 58.3 °F 45.7 °F 63% 29.91 in 10.0 mi SW 8.1 mph - N/A   Clear
5:55 AM 58.1 °F 46.2 °F 65% 29.91 in 10.0 mi SW 10.4 mph - N/A   Clear
6:15 AM 58.3 °F 46.4 °F 65% 29.91 in 10.0 mi SW 9.2 mph - N/A   Clear
6:35 AM 57.4 °F 45.9 °F 65% 29.91 in 10.0 mi SW 9.2 mph - N/A   Clear
6:55 AM 57.4 °F 45.9 °F 65% 29.91 in 10.0 mi SW 9.2 mph - N/A   Clear
7:15 AM 58.5 °F 46.0 °F 63% 29.91 in 10.0 mi SW 9.2 mph - N/A   Clear
7:35 AM 59.0 °F 46.4 °F 63% 29.92 in 10.0 mi WSW 6.9 mph - N/A   Clear
7:55 AM 59.5 °F 46.9 °F 63% 29.92 in 10.0 mi WSW 6.9 mph - N/A   Clear
8:15 AM 62.4 °F 46.9 °F 57% 29.92 in 10.0 mi SW 8.1 mph - N/A   Clear
8:35 AM 66.0 °F 46.6 °F 49% 29.92 in 10.0 mi WSW 6.9 mph - N/A   Clear
8:55 AM 69.1 °F 45.7 °F 43% 29.92 in 10.0 mi SW 8.1 mph - N/A   Clear
9:15 AM 72.0 °F 45.9 °F 39% 29.92 in 10.0 mi WSW 5.8 mph - N/A   Clear
9:35 AM 74.8 °F 45.3 °F 35% 29.92 in 10.0 mi SW 4.6 mph - N/A   Clear
10:15 AM 80.4 °F 43.7 °F 27% 29.91 in 10.0 mi West 4.6 mph - N/A   Clear
10:35 AM 82.4 °F 44.4 °F 26% 29.91 in 10.0 mi West 4.6 mph - N/A   Clear
10:55 AM 86.0 °F 42.4 °F 22% 29.91 in 10.0 mi WSW 4.6 mph - N/A   Clear
11:15 AM 88.5 °F 40.5 °F 18% 29.90 in 10.0 mi WSW 5.8 mph - N/A   Clear
11:35 AM 89.4 °F 39.4 °F 17% 29.90 in 10.0 mi WSW 4.6 mph - N/A   Clear
11:55 AM 91.6 °F 36.9 °F 15% 29.89 in 10.0 mi WSW 3.5 mph - N/A   Clear
12:15 PM 92.1 °F 33.1 °F 12% 29.89 in 10.0 mi Calm Calm - N/A   Clear
12:35 PM 94.1 °F 29.5 °F 10% 29.88 in 10.0 mi West 3.5 mph - N/A   Clear
12:55 PM 95.2 °F 28.8 °F 9% 29.88 in 10.0 mi North 5.8 mph - N/A   Clear
1:15 PM 94.5 °F 29.5 °F 10% 29.87 in 10.0 mi Calm Calm - N/A   Clear
1:35 PM 96.1 °F 28.4 °F 9% 29.86 in 10.0 mi NNW 4.6 mph - N/A   Clear
1:55 PM 96.1 °F 26.6 °F 8% 29.85 in 10.0 mi North 11.5 mph - N/A   Clear
2:15 PM 96.3 °F 24.3 °F 8% 29.84 in 10.0 mi South 3.5 mph - N/A   Clear
2:35 PM 95.2 °F 21.9 °F 7% 29.83 in 10.0 mi NE 3.5 mph - N/A   Clear
2:55 PM 97.2 °F 22.3 °F 7% 29.82 in 10.0 mi ENE 4.6 mph - N/A   Clear
3:15 PM 95.4 °F 22.8 °F 7% 29.82 in 10.0 mi ENE 6.9 mph - N/A   Clear
3:35 PM 94.6 °F 23.4 °F 8% 29.81 in 10.0 mi NNE 19.6 mph 25.3 mph N/A   Clear
3:55 PM 92.3 °F 21.7 °F 8% 29.81 in 10.0 mi NNE 15.0 mph 20.7 mph N/A   Clear
4:35 PM 92.3 °F 23.7 °F 8% 29.81 in 10.0 mi SE 13.8 mph 28.8 mph N/A   Clear
4:55 PM 94.8 °F 24.8 °F 8% 29.79 in 10.0 mi SSE 5.8 mph - N/A   Clear
5:15 PM 95.2 °F 24.4 °F 8% 29.79 in 10.0 mi SE 8.1 mph - N/A   Clear
5:35 PM 93.2 °F 23.4 °F 8% 29.79 in 10.0 mi SSE 9.2 mph - N/A   Clear
5:55 PM 93.2 °F 23.9 °F 8% 29.79 in 10.0 mi ESE 6.9 mph - N/A   Clear
6:15 PM 94.6 °F 26.8 °F 9% 29.78 in 10.0 mi SSE 11.5 mph 16.1 mph N/A   Clear
6:35 PM 94.3 °F 24.1 °F 8% 29.78 in 10.0 mi SSE 10.4 mph - N/A   Clear
7:15 PM 91.4 °F 29.1 °F 11% 29.77 in 10.0 mi South 13.8 mph - N/A   Clear
7:35 PM 88.2 °F 30.2 °F 12% 29.77 in 10.0 mi SSE 13.8 mph - N/A   Clear
7:55 PM 85.8 °F 31.1 °F 14% 29.77 in 10.0 mi South 12.7 mph - N/A   Clear
8:15 PM 85.1 °F 31.1 °F 14% 29.78 in 10.0 mi SSW 17.3 mph 20.7 mph N/A   Clear
8:35 PM 83.1 °F 32.0 °F 16% 29.81 in 10.0 mi West 8.1 mph - N/A   Scattered Clouds
8:55 PM 83.7 °F 31.3 °F 15% 29.83 in 10.0 mi NW 8.1 mph - N/A   Scattered Clouds
9:15 PM 85.1 °F 32.2 °F 15% 29.83 in 10.0 mi NNW 25.3 mph 36.8 mph N/A Rain Light Rain
9:35 PM 84.7 °F 29.7 °F 14% 29.86 in 10.0 mi South 3.5 mph 26.5 mph N/A   Light Drizzle
9:55 PM 84.6 °F 30.2 °F 14% 29.82 in 10.0 mi West 16.1 mph 31.1 mph N/A Rain Light Rain
10:15 PM 86.0 °F 27.7 °F 12% 29.82 in 10.0 mi West 11.5 mph - N/A   Mostly Cloudy
10:35 PM 83.5 °F 32.0 °F 16% 29.83 in 10.0 mi West 12.7 mph 17.3 mph N/A   Scattered Clouds
11:15 PM 80.8 °F 32.9 °F 18% 29.83 in 10.0 mi SW 11.5 mph - N/A   Scattered Clouds
11:35 PM 82.2 °F 31.6 °F 16% 29.84 in 10.0 mi West 3.5 mph - N/A   Clear
11:55 PM 81.5 °F 32.0 °F 17% 29.85 in 10.0 mi Calm Calm - N/A   Clear